Portsmouth, NH

2:30 PM EST on January 21, 2018 (GMT -0500)
Pease International Tradeport

Weather History for KPSM - February, 2013

Change the Weather History Date:

Thursday, February 28, 2013

  Actual Average Record
Temperature  
Mean Temperature 38 °F -  
Max Temperature 43 °F 37 °F 57 °F (2016)
Min Temperature 33 °F 21 °F 2 °F (1982)
Degree Days  
Heating Degree Days 27    
Moisture  
Dew Point 33 °F    
Average Humidity 86    
Maximum Humidity 97    
Minimum Humidity 68    
Precipitation  
Precipitation 0.00 in - - ()
Sea Level Pressure  
Sea Level Pressure 29.57 in    
Wind  
Wind Speed 10 mph (NNW)    
Max Wind Speed 17 mph    
Max Gust Speed 24 mph    
Visibility 9 miles    
Events Rain    
Averages and records for this station are not official NWS values.
T = Trace of Precipitation, MM = Missing Value Source: NWS Daily Summary

Daily Weather History Graph

Daily Weather History Graph

Search for Another Location

Airport or City:

Trip Planner

Search our weather history database for the weather conditions in past years. The results will help you decide how hot, cold, wet, or windy it might be!

Date:

Astronomy

Feb. 28, 2013 Rise Set
Actual Time 6:20 AM EST 5:31 PM EST
Civil Twilight 5:52 AM EST 6:00 PM EST
Nautical Twilight 5:19 AM EST 6:33 PM EST
Astronomical Twilight 4:46 AM EST 7:05 PM EST
Moon 9:02 PM EST (2/28) 7:22 AM EST (2/28)
Length of Visible Light 12h 08m
Length of Day
11h 10m
Waning Gibbous, 91% of the Moon is Illuminated
Feb 28
Waning Gibbous
Mar 4
Last Quarter
Mar 11
New
Mar 19
First Quarter
Mar 27
Full

Hourly Weather History & Observations

Time (EST) Temp. Windchill Dew Point Humidity Pressure Visibility Wind Dir Wind Speed Gust Speed Precip Events Conditions
12:23 AM 35.6 °F 26.2 °F 33.8 °F 93% 29.55 in 2.0 mi North 15.0 mph - N/A Rain Light Rain
12:38 AM 35.6 °F 26.2 °F 33.8 °F 93% 29.55 in 3.0 mi NNW 15.0 mph - N/A Rain Light Rain
12:55 AM 33.8 °F 23.9 °F 33.1 °F 97% 29.55 in 4.0 mi NNW 15.0 mph - 0.00 in   Overcast
1:39 AM 33.8 °F 23.2 °F 32.0 °F 93% 29.55 in 4.0 mi North 17.3 mph 24.2 mph N/A   Overcast
1:55 AM 33.4 °F 23.5 °F 32.4 °F 96% 29.54 in 7.0 mi North 15.0 mph 20.7 mph N/A   Mostly Cloudy
2:05 AM 33.8 °F 23.9 °F 32.0 °F 93% 29.54 in 7.0 mi North 15.0 mph - N/A   Overcast
2:55 AM 33.4 °F 27.3 °F 32.2 °F 95% 29.55 in 10.0 mi WNW 6.9 mph - N/A   Overcast
3:55 AM 33.3 °F 26.4 °F 31.8 °F 94% 29.57 in 10.0 mi WNW 8.1 mph - N/A   Overcast
4:55 AM 33.3 °F 28.9 °F 31.6 °F 94% 29.58 in 10.0 mi WNW 4.6 mph - N/A   Overcast
5:55 AM 33.1 °F 28.7 °F 31.5 °F 94% 29.60 in 10.0 mi West 4.6 mph - N/A   Overcast
6:55 AM 33.4 °F 28.1 °F 32.2 °F 95% 29.62 in 10.0 mi WSW 5.8 mph - N/A   Overcast
7:15 AM 33.8 °F 30.8 °F 32.0 °F 93% 29.62 in 10.0 mi WSW 3.5 mph - N/A   Overcast
7:55 AM 34.0 °F 28.8 °F 32.4 °F 94% 29.61 in 10.0 mi West 5.8 mph - N/A   Overcast
8:55 AM 35.6 °F 31.7 °F 32.7 °F 89% 29.61 in 10.0 mi WSW 4.6 mph - N/A   Mostly Cloudy
9:12 AM 37.4 °F 32.8 °F 33.8 °F 87% 29.62 in 10.0 mi SW 5.8 mph - N/A   Mostly Cloudy
9:55 AM 36.9 °F - 32.2 °F 83% 29.62 in 10.0 mi Calm Calm - N/A   Mostly Cloudy
10:55 AM 38.3 °F 35.9 °F 33.6 °F 83% 29.61 in 10.0 mi SE 3.5 mph - N/A   Overcast
11:55 AM 39.4 °F - 32.9 °F 78% 29.60 in 10.0 mi Calm Calm - N/A   Overcast
12:25 PM 41.0 °F - 33.8 °F 76% 29.58 in 10.0 mi Calm Calm - N/A   Mostly Cloudy
12:55 PM 42.3 °F - 33.3 °F 70% 29.57 in 10.0 mi Calm Calm - N/A   Mostly Cloudy
1:55 PM 42.4 °F 39.6 °F 33.8 °F 71% 29.55 in 10.0 mi NNW 4.6 mph - N/A   Mostly Cloudy
2:55 PM 43.7 °F 40.3 °F 34.2 °F 69% 29.54 in 10.0 mi NW 5.8 mph - N/A   Mostly Cloudy
3:55 PM 43.5 °F 39.4 °F 33.8 °F 69% 29.54 in 10.0 mi North 6.9 mph - N/A   Mostly Cloudy
4:55 PM 43.3 °F 39.9 °F 33.4 °F 68% 29.53 in 10.0 mi North 5.8 mph - N/A   Mostly Cloudy
5:21 PM 42.8 °F 38.0 °F 33.8 °F 70% 29.53 in 10.0 mi North 8.1 mph - N/A   Mostly Cloudy
5:55 PM 41.7 °F 36.7 °F 34.0 °F 74% 29.55 in 10.0 mi NNE 8.1 mph - N/A   Overcast
6:55 PM 40.1 °F 34.7 °F 34.0 °F 79% 29.55 in 10.0 mi North 8.1 mph - N/A   Mostly Cloudy
7:55 PM 38.5 °F 31.6 °F 34.9 °F 87% 29.55 in 8.0 mi NNE 10.4 mph - 0.00 in Rain Light Rain
8:24 PM 37.4 °F 30.8 °F 35.6 °F 93% 29.55 in 8.0 mi North 9.2 mph - N/A Rain Light Rain
8:55 PM 36.9 °F 30.7 °F 33.6 °F 88% 29.55 in 10.0 mi North 8.1 mph - 0.00 in   Overcast
9:08 PM 37.4 °F 31.4 °F 33.8 °F 87% 29.55 in 10.0 mi NNE 8.1 mph - N/A   Overcast
9:40 PM 35.6 °F 28.0 °F 32.0 °F 87% 29.56 in 10.0 mi NNE 10.4 mph - N/A   Overcast
9:55 PM 36.0 °F 28.5 °F 32.5 °F 87% 29.56 in 10.0 mi North 10.4 mph - N/A   Overcast
10:55 PM 35.4 °F 28.4 °F 32.0 °F 87% 29.54 in 10.0 mi North 9.2 mph - N/A   Overcast
11:39 PM 35.6 °F 28.6 °F 32.0 °F 87% 29.54 in 10.0 mi North 9.2 mph - N/A   Overcast
11:55 PM 35.1 °F 29.3 °F 31.3 °F 86% 29.54 in 10.0 mi North 6.9 mph - N/A   Overcast